Flag for Switzerland Weather past 2 weeks in Aarau, Aargau, Switzerland

Now
44 °F

Quite cool.


Feels Like: 39 °F
Forecast: 37 / 61 °F
Wind: 10 mph from Northeast

Location: Wynau

Current Time: Apr 18, 2015 at 7:49:31 AM

Latest Report: Apr 18, 2015 at 7:00 AM


Visibility: N/A

Pressure: 30.13 "Hg

Humidity: 87%

Dew point: 40 °F

Location of AarauLocation

Historic Weather in Aarau — Graph

°F

Aarau temperature yesterday

Maximum temperature yesterday: 57 °F (at 2:00 PM)
Minimum temperature yesterday: 50 °F (at 12:00 AM)
Average temperature yesterday: 53 °F

Past Weeks' High & Low Weather Summary

 TemperatureHumidityPressure
High73 °F (Apr 15, 5:00 PM)100% (Apr 3, 6:00 AM)30.60 "Hg (Apr 3, 6:00 AM)
Low27 °F (Apr 6, 7:00 AM)21% (Apr 8, 6:00 PM)29.85 "Hg (Apr 4, 4:00 PM)
Average48 °F70%30.25 "Hg
* Reported Apr 3 6:00 AM — Apr 18 6:00 AM, Aarau, Weather by CustomWeather, © 2015

Note: Actual official high and low records may vary slightly from our data, if they occured in-between our weather recording intervals... More about our weather records

Advertising

Aarau weather history for previous 24 hours

 ConditionsComfort  
Time TempWeatherWind HumidityBarometerVisibility
6:00 AM
Sat, Apr 18
46 °FCool.13 mph86%30.11 "HgN/A
5:00 AM47 °FCool.6 mph93%30.09 "HgN/A
4:00 AM47 °FCool.5 mph93%30.09 "HgN/A
3:00 AM47 °FCool.7 mph92%30.08 "HgN/A
2:00 AM49 °FCool.8 mph93%30.06 "HgN/A
1:00 AM50 °FCool.1 mph98%30.05 "HgN/A
12:00 AM50 °FCool.1 mph97%30.04 "HgN/A
11:00 PM
Fri, Apr 17
51 °FCool.3 mph96%30.02 "HgN/A
10:00 PM53 °FCool.3 mph96%30.01 "HgN/A
9:00 PM53 °FCool.1 mph97%29.98 "HgN/A
8:00 PM53 °FCool.1 mph97%29.97 "HgN/A
7:00 PM53 °FCool.3 mph96%29.96 "HgN/A
6:00 PM54 °FCool.5 mph93%29.96 "HgN/A
5:00 PM57 °FCool.8 mph76%29.94 "HgN/A
4:00 PM56 °FCool.5 mph82%29.95 "HgN/A
3:00 PM55 °FCool.9 mph82%29.96 "HgN/A
2:00 PM57 °FCool.7 mph79%29.96 "HgN/A
1:00 PM57 °FCool.8 mph77%29.96 "HgN/A
12:00 PM57 °FCool.7 mph82%29.96 "HgN/A
11:00 AM54 °FCool.2 mph94%29.96 "HgN/A
10:00 AM52 °FCool.2 mph92%29.97 "HgN/A
9:00 AM51 °FCool.No wind97%29.97 "HgN/A
8:00 AM50 °FCool.1 mph97%29.96 "HgN/A
7:00 AM50 °FCool.1 mph98%29.96 "HgN/A
Weather by CustomWeather, © 2015

See weather overviewHow to use our weather pages